Quemado, NM

6:58 AM MST on December 07, 2016 (GMT -0700)
Lordsburg

Weather History for KLSB - January, 2014

Change the Weather History Date:

Tuesday, January 21, 2014

  Actual Average Record
Temperature  
Mean Temperature 48 °F -  
Max Temperature 60 °F 57 °F 68 °F (2013)
Min Temperature 35 °F 26 °F 24 °F (2016)
Degree Days  
Heating Degree Days 18    
Moisture  
Dew Point 12 °F    
Average Humidity 24    
Maximum Humidity 35    
Minimum Humidity 15    
Precipitation  
Precipitation 0.00 in - - ()
Sea Level Pressure  
Sea Level Pressure 30.33 in    
Wind  
Wind Speed 13 mph (SE)    
Max Wind Speed 22 mph    
Max Gust Speed 29 mph    
Visibility 10 miles    
Events      
Averages and records for this station are not official NWS values.
T = Trace of Precipitation, MM = Missing Value Source: NWS Daily Summary

Daily Weather History Graph

Daily Weather History Graph

Search for Another Location

Airport or City:

Trip Planner

Search our weather history database for the weather conditions in past years. The results will help you decide how hot, cold, wet, or windy it might be!

Date:

Astronomy

Jan. 21, 2014 Rise Set
Actual Time 7:14 AM MST 5:38 PM MST
Civil Twilight 6:48 AM MST 6:04 PM MST
Nautical Twilight 6:18 AM MST 6:34 PM MST
Astronomical Twilight 5:49 AM MST 7:03 PM MST
Moon 10:52 PM MST (1/21) 10:05 AM MST (1/21)
Length of Visible Light 11h 15m
Length of Day
10h 23m
Waning Gibbous, 74% of the Moon is Illuminated
Jan 21
Waning Gibbous
Jan 23
Last Quarter
Jan 30
New
Feb 6
First Quarter
Feb 14
Full

Hourly Weather History & Observations

Time (MST) Temp. Windchill Dew Point Humidity Pressure Visibility Wind Dir Wind Speed Gust Speed Precip Events Conditions
12:15 AM 42.8 °F 36.6 °F 8.6 °F 25% 30.33 in 10.0 mi South 11.5 mph - N/A   Clear
12:35 AM 44.6 °F 38.1 °F 10.4 °F 25% 30.34 in 10.0 mi SSE 13.8 mph - N/A   Clear
1:15 AM 44.6 °F 38.4 °F 10.4 °F 25% 30.35 in 10.0 mi SE 12.7 mph - N/A   Clear
1:35 AM 42.8 °F 36.2 °F 10.4 °F 27% 30.35 in 10.0 mi SE 12.7 mph - N/A   Clear
1:55 AM 42.8 °F 36.2 °F 8.6 °F 25% 30.36 in 10.0 mi SE 12.7 mph - N/A   Clear
2:15 AM 42.8 °F 36.6 °F 8.6 °F 25% 30.36 in 10.0 mi SE 11.5 mph - N/A   Clear
2:35 AM 41.0 °F 33.5 °F 8.6 °F 26% 30.36 in 10.0 mi SE 13.8 mph - N/A   Clear
2:55 AM 42.8 °F 35.1 °F 8.6 °F 25% 30.37 in 10.0 mi SE 16.1 mph - N/A   Clear
3:15 AM 41.0 °F 33.5 °F 8.6 °F 26% 30.37 in 10.0 mi SE 13.8 mph - N/A   Clear
3:55 AM 39.2 °F 30.5 °F 10.4 °F 31% 30.37 in 10.0 mi SE 16.1 mph - N/A   Clear
4:15 AM 39.2 °F 30.2 °F 10.4 °F 31% 30.37 in 10.0 mi SE 17.3 mph - N/A   Clear
4:35 AM 37.4 °F 28.2 °F 10.4 °F 33% 30.38 in 10.0 mi SE 16.1 mph 21.9 mph N/A   Clear
4:55 AM 37.4 °F 28.9 °F 10.4 °F 33% 30.38 in 10.0 mi SE 13.8 mph - N/A   Clear
5:15 AM 37.4 °F 28.9 °F 10.4 °F 33% 30.38 in 10.0 mi SE 13.8 mph - N/A   Clear
5:35 AM 37.4 °F 29.3 °F 10.4 °F 33% 30.39 in 10.0 mi SSE 12.7 mph - N/A   Clear
5:55 AM 35.6 °F 27.1 °F 10.4 °F 35% 30.40 in 10.0 mi SSE 12.7 mph - N/A   Clear
6:35 AM 35.6 °F 27.1 °F 10.4 °F 35% 30.41 in 10.0 mi SSE 12.7 mph - N/A   Clear
6:55 AM 35.6 °F 27.1 °F 10.4 °F 35% 30.41 in 10.0 mi SSE 12.7 mph - N/A   Clear
7:15 AM 35.6 °F 26.6 °F 10.4 °F 35% 30.41 in 10.0 mi SSE 13.8 mph - N/A   Clear
7:35 AM 35.6 °F 26.6 °F 10.4 °F 35% 30.41 in 10.0 mi SSE 13.8 mph - N/A   Clear
7:55 AM 37.4 °F 29.3 °F 10.4 °F 33% 30.42 in 10.0 mi SSE 12.7 mph - N/A   Clear
8:15 AM 41.0 °F 33.5 °F 10.4 °F 29% 30.42 in 10.0 mi SE 13.8 mph - N/A   Clear
8:35 AM 41.0 °F 33.9 °F 12.2 °F 31% 30.43 in 10.0 mi SE 12.7 mph - N/A   Clear
8:55 AM 42.8 °F 36.2 °F 12.2 °F 29% 30.43 in 10.0 mi SE 12.7 mph - N/A   Clear
9:15 AM 46.4 °F 40.7 °F 12.2 °F 25% 30.43 in 10.0 mi SE 12.7 mph - N/A   Clear
9:35 AM 50.0 °F - 14.0 °F 24% 30.43 in 10.0 mi ESE 13.8 mph 19.6 mph N/A   Clear
9:55 AM 51.8 °F - 12.2 °F 21% 30.43 in 10.0 mi ESE 21.9 mph 27.6 mph N/A   Clear
10:15 AM 53.6 °F - 12.2 °F 19% 30.43 in 10.0 mi ESE 19.6 mph 24.2 mph N/A   Clear
10:35 AM 53.6 °F - 12.2 °F 19% 30.43 in 10.0 mi ESE 19.6 mph 27.6 mph N/A   Clear
10:55 AM 53.6 °F - 12.2 °F 19% 30.42 in 10.0 mi ESE 20.7 mph 28.8 mph N/A   Clear
11:15 AM 55.4 °F - 12.2 °F 18% 30.41 in 10.0 mi ESE 18.4 mph 27.6 mph N/A   Clear
11:35 AM 55.4 °F - 14.0 °F 20% 30.40 in 10.0 mi ESE 19.6 mph 24.2 mph N/A   Clear
11:55 AM 57.2 °F - 12.2 °F 17% 30.39 in 10.0 mi ESE 17.3 mph 24.2 mph N/A   Clear
12:15 PM 59.0 °F - 14.0 °F 17% 30.37 in 10.0 mi ESE 16.1 mph 21.9 mph N/A   Clear
12:35 PM 59.0 °F - 12.2 °F 16% 30.35 in 10.0 mi East 16.1 mph 24.2 mph N/A   Clear
12:55 PM 60.8 °F - 14.0 °F 16% 30.33 in 10.0 mi East 16.1 mph 24.2 mph N/A   Clear
1:35 PM 60.8 °F - 14.0 °F 16% 30.30 in 10.0 mi ESE 15.0 mph 19.6 mph N/A   Clear
1:55 PM 60.8 °F - 14.0 °F 16% 30.29 in 10.0 mi East 12.7 mph 17.3 mph N/A   Clear
2:15 PM 60.8 °F - 14.0 °F 16% 30.28 in 10.0 mi ESE 15.0 mph 20.7 mph N/A   Clear
2:35 PM 60.8 °F - 14.0 °F 16% 30.27 in 10.0 mi East 16.1 mph 19.6 mph N/A   Clear
2:55 PM 60.8 °F - 12.2 °F 15% 30.26 in 10.0 mi East 13.8 mph 18.4 mph N/A   Clear
3:15 PM 60.8 °F - 12.2 °F 15% 30.26 in 10.0 mi East 15.0 mph 18.4 mph N/A   Clear
3:35 PM 60.8 °F - 12.2 °F 15% 30.26 in 10.0 mi East 15.0 mph - N/A   Clear
3:55 PM 60.8 °F - 12.2 °F 15% 30.26 in 10.0 mi ESE 12.7 mph 21.9 mph N/A   Clear
4:15 PM 60.8 °F - 12.2 °F 15% 30.25 in 10.0 mi East 12.7 mph - N/A   Clear
4:35 PM 59.0 °F - 12.2 °F 16% 30.25 in 10.0 mi East 13.8 mph - N/A   Clear
4:55 PM 57.2 °F - 12.2 °F 17% 30.25 in 10.0 mi East 10.4 mph - N/A   Clear
5:15 PM 55.4 °F - 12.2 °F 18% 30.24 in 10.0 mi East 8.1 mph - N/A   Clear
5:35 PM 51.8 °F - 12.2 °F 21% 30.24 in 10.0 mi ESE 6.9 mph - N/A   Clear
5:55 PM 50.0 °F - 10.4 °F 20% 30.24 in 10.0 mi ESE 6.9 mph - N/A   Clear
6:15 PM 46.4 °F 43.5 °F 10.4 °F 23% 30.24 in 10.0 mi SE 5.8 mph - N/A   Clear
6:35 PM 46.4 °F 42.9 °F 10.4 °F 23% 30.25 in 10.0 mi SSE 6.9 mph - N/A   Clear
6:55 PM 44.6 °F 40.7 °F 10.4 °F 25% 30.25 in 10.0 mi SSE 6.9 mph - N/A   Clear
7:15 PM 44.6 °F 40.7 °F 10.4 °F 25% 30.25 in 10.0 mi South 6.9 mph - N/A   Clear
7:35 PM 44.6 °F 40.2 °F 12.2 °F 27% 30.25 in 10.0 mi South 8.1 mph - N/A   Clear
7:55 PM 44.6 °F 40.2 °F 12.2 °F 27% 30.25 in 10.0 mi SE 8.1 mph - N/A   Clear
8:15 PM 46.4 °F 42.4 °F 12.2 °F 25% 30.24 in 10.0 mi South 8.1 mph - N/A   Clear
8:35 PM 44.6 °F 40.2 °F 12.2 °F 27% 30.24 in 10.0 mi South 8.1 mph - N/A   Clear
8:55 PM 44.6 °F 39.7 °F 12.2 °F 27% 30.24 in 10.0 mi SSE 9.2 mph - N/A   Clear
9:15 PM 42.8 °F 38.0 °F 12.2 °F 29% 30.24 in 10.0 mi South 8.1 mph - N/A   Clear
9:35 PM 44.6 °F 39.7 °F 12.2 °F 27% 30.24 in 10.0 mi South 9.2 mph - N/A   Clear
10:15 PM 42.8 °F 37.0 °F 12.2 °F 29% 30.23 in 10.0 mi SSE 10.4 mph - N/A   Clear
10:35 PM 44.6 °F 39.2 °F 12.2 °F 27% 30.23 in 10.0 mi SSE 10.4 mph - N/A   Clear
10:55 PM 44.6 °F 39.7 °F 12.2 °F 27% 30.23 in 10.0 mi SSE 9.2 mph - N/A   Clear
11:15 PM 42.8 °F 37.5 °F 12.2 °F 29% 30.22 in 10.0 mi South 9.2 mph - N/A   Clear
11:55 PM 42.8 °F 37.5 °F 12.2 °F 29% 30.21 in 10.0 mi South 9.2 mph - N/A   Clear